500  
ASUS42 KMLB 132012  
RWRMLB  
HOURLY WEATHER ROUNDUP AROUND FLORIDA  
NATIONAL WEATHER SERVICE OFFICE MELBOURNE FL  
400 PM EDT THU AUG 13 2020  
 
CITY SKY/WX TMP DP RH WIND PRES REMARKS
 
MELBOURNE MOSUNNY 88 77 69 E12 29.99S HX 100  
FORT PIERCE MOSUNNY 89 78 70 E12 29.98F HX 103  
ORLANDO INTL PTSUNNY 91 72 53 CALM 29.99F HX 98  
DAYTONA BEACH CLOUDY 76 75 97 NE5 30.01F THUNDER  
VERO BEACH MOSUNNY 90 75 61 SE14 29.99F HX 100  

   
..ELSEWHERE ACROSS CENTRAL FLORIDA
 
 
 
CITY SKY/WX TMP DP RH WIND PRES REMARKS
 
PATRICK AFB MOSUNNY 90 76 63 NE13 29.99F HX 101  
KSC CLOUDY 88 77 71 E7 29.99F HX 100  
CAPE CANAVERAL MOSUNNY 91 77 63 SE10 29.99F HX 103  
TITUSVILLE PTSUNNY 95 73 49 SE8 30.02R HX 105  
ORLANDO EXEC PTSUNNY 91 71 51 N15G22 30.00S  
LEESBURG CLOUDY 75 73 93 NW6 30.01F  
SANFORD CLOUDY 80 71 74 NE12 30.02S  
DELAND CLOUDY 76 73 91 E6 30.02F  
NEW SMYRNA BCH PTSUNNY N/A N/A N/A MISG N/A  
ORMOND BEACH LGT RAIN N/A N/A N/A CALM 30.02F FOG  
WINTER HAVEN MOSUNNY 94 72 48 VRB3 29.99F HX 102  
KISSIMMEE MOSUNNY 90 75 61 W7 30.00F HX 100  
OKEECHOBEE MOSUNNY 90 72 55 SE7 29.98F  
TAMPA PTSUNNY 93 71 48 W9 29.98F THUNDER HX 100  

   
..NORTHERN FLORIDA
 
 
 
CITY SKY/WX TMP DP RH WIND PRES REMARKS
 
PALM COAST MOSUNNY 72 72 100 CALM 30.01F  
ST AUGUSTINE MOSUNNY 85 73 67 SE13 29.99F  
OCALA CLOUDY 84 75 74 SE16 30.00F  
GAINESVILLE LGT RAIN 84 75 74 N13 30.00F  
JACKSONVILLE PTSUNNY 92 74 55 S10 29.94F HX 101  
TALLAHASSEE PTSUNNY 92 74 55 S8 29.96F HX 101  

   
..ALONG THE SOUTHEAST COAST TO THE KEYS
 
 
 
CITY SKY/WX TMP DP RH WIND PRES REMARKS
 
STUART MOSUNNY 90 75 62 E10 30.01F HX 100  
WEST PALM BCH MOSUNNY 90 77 65 SE15 29.99F HX 103  
MIAMI PTSUNNY 91 74 57 E8G18 29.98F HX 100  
KEY WEST MOSUNNY 91 77 63 E12 29.97F HX 104  

   
..MARINE REPORTS
 
 
 
STATION/POSITION TIME TEMP WIND PRES WAVE SWELL
 
AIR SEA DIR/SP/G HT/PER HT/PER  
(UTC) (F) (DEG/KT/KT) (MB) (FT/S) (FT/S)  
ST AUGUSTINE FP 2000 79 85 170/ 11/ 13 1015.9F  
20NM E CAPE CANA 1950 85 87 130/ 6/ 8 1015.7F 2/ 3 2/ 9  
TRIDENT PIER 1930 90 88 100/ 9/ 11 1016.7F  
SEBASTIAN INLET 1945 85 84 130/ 12 1017.0S  
4NM E PORT CANAV 1956 87 N/A 1/ 3  
6NM NE FPR INLET 1956 87 N/A 2/ 9  
SETTLEMENT PT GB 2000 86 CALM / 1 1016.1F  

 
 
 
CLICK HERE TO GO TO PREVIOUS BULLETINS.

The Nexlab FL Page Main Text Page